Weather Roundup
Issued by NWS Corpus Christi, TX

Home | Current Version | Previous Version | Text Only | Print | Product List | Glossary Off
Versions: 1 2 3 4 5 6 7 8 9 10 11 12 13 14 15 16 17 18 19 20 21 22 23 24 25 26 27 28 29 30 31 32 33 34 35 36 37 38 39 40 41 42 43 44 45 46 47 48 49 50

000
ASUS44 KCRP 301310
HRRCRP

SOUTH TEXAS REGIONAL WEATHER ROUNDUP
NATIONAL WEATHER SERVICE CORPUS CHRISTI TX
800 AM CDT WED JUL 30 2014


TXZ229>244-301400-
...CORPUS CHRISTI AREA OBSERVATIONS...

CITY           SKY/WX    TMP DP  RH WIND       PRES   REMARKS
CORPUS CHRISTI PTSUNNY   77  74  90 SE6       30.03R
NAS CORPUS CHR MOSUNNY   81  74  79 S8        30.03R
ROCKPORT       SUNNY     80  75  84 VRB6      30.03S
KINGSVILLE NAS PTSUNNY   76  75  97 CALM      30.02S FOG
ALICE          FOG       74  73  97 SE3       30.02S VSB 1/4
FALFURRIAS       N/A     52  32  46 CALM      30.02R
$$

...VICTORIA AREA OBSERVATIONS...

CITY           SKY/WX    TMP DP  RH WIND       PRES   REMARKS
VICTORIA       SUNNY     79  76  90 CALM      30.04S
BEEVILLE       FAIR      76  76 100 SE6       30.03S FOG
PLEASANTON     CLOUDY    75  73  91 SE5       30.04R
SAN ANTONIO    PTSUNNY   77  71  82 S9        30.05R
$$

...LAREDO AREA OBSERVATIONS...

CITY           SKY/WX    TMP DP  RH WIND       PRES   REMARKS
LAREDO         SUNNY     78  73  84 SE10      30.03S
COTULLA        SUNNY     76  71  85 SE8       30.01S
DEL RIO        SUNNY     77  63  61 E8        30.01R
MCALLEN        SUNNY     78  74  87 SE9       30.01S
HEBBRONVILLE   FOG       74  72  95 SE6       30.03F VSB 1/2
$$

...OTHER TEXAS OBSERVATIONS...

CITY           SKY/WX    TMP DP  RH WIND       PRES   REMARKS
BROWNSVILLE    SUNNY     78  76  93 SE6       30.02S
HOUSTON        MOSUNNY   76  74  93 CALM      30.05S
COL. STATION   SUNNY     75  73  93 SE3       30.06R
AUSTIN         MOSUNNY   76  72  87 S5        30.04S
WACO           CLOUDY    78  70  76 S9        30.04S
FORT WORTH     LGT RAIN  76  70  82 E6        30.07R
WICHITA FALLS  LGT RAIN  68  66  93 SE12      30.05S FOG
LUBBOCK        PTSUNNY   68  65  90 SE8       30.07F
EL PASO        MOCLDY    73  66  78 CALM      30.08S
$$

...MARINE OBSERVATIONS...

STATION/POSITION TIME  SKY/WX   TEMP    WIND        PRES    VSBY  WAVE   SWELL
                                AIR SEA DIR/SP/G                  HT/PER HT/PER
                 (UTC)          (F)     (DEG/KT/KT) (MB)    (MI)  (FT/S) (FT/S)
PORT ARANSAS     1300            80 79  170/  6/  7 1017.5R
BUOY 90 E PORT A 1300            83 84  210/  6/  8 1017.7R         1/ 5   2/ 5
BUOY 45 SE BAFFI 1300            83 84  190/ 12/ 14 1016.5R         2/ 4
BUOY 200 E PT IS 1300            83 86  220/  2/  4 1017.4R         1
BUOY 15 E GALVES NOT AVBL
$$



USA.gov is the U.S. government's official web portal to all federal, state and local government web resources and services.